Overview Statistics Trail Chart Weather Telemetry Raw packets
 

This is the latest recevied weather packets stored in our database for station/object NT9G. If no packets are shown the sender has not sent any weather packets the latest 10 day(s).

<< 15 16 17 18 19 20 21 >>
Time Temp. Humidity Pressure Rain* Wind** Luminosity Snow
1777746991 14.44° C 26% 1020.6 hPa 0 mm - - -
1777746690 15° C 23% 1020.7 hPa 0 mm - - -
1777746390 15° C 27% 1020.6 hPa 0 mm - - -
1777746090 15.56° C 27% 1020.7 hPa 0 mm - - -
1777745790 15° C 26% 1020.7 hPa 0 mm - - -
1777745489 14.44° C 27% 1020.7 hPa 0 mm - - -
1777745189 13.89° C 27% 1020.8 hPa 0 mm - - -
1777744889 13.89° C 26% 1020.8 hPa 0 mm - - -
1777744588 14.44° C 26% 1020.9 hPa 0 mm - - -
1777744288 14.44° C 31% 1020.9 hPa 0 mm - - -
1777743988 14.44° C 30% 1021 hPa 0 mm - - -
1777743688 13.89° C 29% 1021 hPa 0 mm - - -
1777743387 13.89° C 30% 1021.1 hPa 0 mm - - -
1777743087 13.33° C 28% 1021.1 hPa 0 mm - - -
1777742787 12.78° C 34% 1021.3 hPa 0 mm - - -
1777742487 12.78° C 29% 1021.3 hPa 0 mm - - -
1777742186 12.78° C 30% 1021.3 hPa 0 mm - - -
1777741886 12.78° C 31% 1021.3 hPa 0 mm - - -
1777741586 13.33° C 30% 1021.4 hPa 0 mm - - -
1777741285 13.89° C 28% 1021.3 hPa 0 mm - - -
1777740985 14.44° C 26% 1021.3 hPa 0 mm - - -
1777740685 14.44° C 26% 1021.4 hPa 0 mm - - -
1777740384 14.44° C 28% 1021.5 hPa 0 mm - - -
1777740084 13.89° C 28% 1021.6 hPa 0 mm - - -
1777739784 13.33° C 28% 1021.6 hPa 0 mm - - -

* Rain since midnight (hover to see other rain measurements)
** Current wind speed in m/s (hover to see current wind gust speed)